Girona Airport

Jump to: basic info | weather | frequencies | runways | comments

Related pages: nearby airports | nearby navaids | notams | map

Basic information (top)

Codes: GRO LEGE
Location: lon 41.901001, lat 2.760550, elev 468 ft / 143 m msl
Status: medium_airport
Scheduled airline service: yes
Links: Wikipedia Mobile

Weather (top)

Current conditions (rec'd 2014/07/23 13:30Z):

LEGE 231330Z 16011KT 140V200 9999 FEW030 29/16 Q1010

Airport forecast (rec'd 2014/07/23 12:30Z):

TAF LEGE 231100Z 2312/2412 18009KT 9999 FEW030 TX31/2314Z TN16/2405Z PROB30 
      TEMPO 2314/2319 FEW030TCU 
      BECMG 2318/2321 VRB03KT

Frequencies (top)

Verify before use: may be inaccurate or out of date.

APP: 120.9 MHz (APP)
GND: 121.7 MHz (GND)
TWR: 118.5 MHz (TWR)

Runways (top)

02/20: 7,874 x 148 ft (2,400 x 45 m) — paved — lighted

Latest comments (top)

No comments yet for Girona Airport

More... (top)

See also NOTAMs and nearby airports and navaids, or visit the Girona Airport page at the main OurAirports website..